Home   Weather   Homburg (Saar)   Past weeks

Flag for Germany Past Weather in Homburg (Saar), Saarland, Germany — Yesterday and Last 2 Weeks

Now
50 °F

Mostly cloudy.


Feels Like: 45 °F
Forecast: 41 / 61 °F
Wind: 14 mph from Southwest

Location: Saarbruecken / Ensheim

Current Time: May 1, 2017 at 4:47:19 am

Latest Report: May 1, 2017 at 4:20 am


Visibility: N/A

Pressure: 29.74 "Hg

Humidity: 82%

Dew Point: 45 °F

Location of Homburg (Saar)Location

Past Weather in Homburg (Saar) — Graph

°F

Homburg (Saar) Temperature Yesterday

Maximum temperature yesterday: 66 °F (at 5:20 pm)
Minimum temperature yesterday: 36 °F (at 5:20 am)
Average temperature yesterday: 52 °F

High & Low Weather Summary for the Past Weeks

 TemperatureHumidityPressure
High66 °F (Apr 30, 5:20 pm)100% (Apr 16, 5:50 am)30.57 "Hg (Apr 16, 5:50 am)
Low27 °F (Apr 20, 6:20 am)26% (Apr 30, 5:20 pm)29.65 "Hg (Apr 30, 10:50 pm)
Average44 °F63%30.11 "Hg
* Reported Apr 16 3:20 am — May 1 3:20 am, Homburg (Saar), Weather by CustomWeather, © 2017

Note: Actual official high and low records may vary slightly from our data, if they occured in-between our weather recording intervals... More about our weather records

Advertising

Homburg (Saar) Weather History for the Previous 24 Hours

Scroll right to see more
 ConditionsComfort  
Time TempWeatherWind HumidityBarometerVisibility
3:20 am
Mon, May 1
52 °FPartly cloudy.10 mph72%29.71 "HgN/A
2:20 am54 °FOvercast.8 mph67%29.71 "HgN/A
1:50 am55 °FOvercast.17 mph63%29.71 "HgN/A
12:50 am55 °FOvercast.3 mph47%29.68 "HgN/A
12:20 am55 °FOvercast.8 mph47%29.68 "HgN/A
11:50 pm
Sun, Apr 30
55 °FPassing clouds.10 mph44%29.68 "HgN/A
11:20 pm55 °FPassing clouds.10 mph44%29.65 "HgN/A
10:50 pm55 °FClear.12 mph44%29.65 "Hg10 mi
10:20 pm54 °FClear.10 mph51%29.68 "Hg10 mi
9:50 pm54 °FClear.9 mph51%29.68 "Hg10 mi
9:20 pm55 °FClear.12 mph47%29.68 "Hg10 mi
8:50 pm59 °FClear.10 mph42%29.68 "Hg10 mi
8:20 pm59 °FSunny.9 mph42%29.68 "Hg10 mi
7:50 pm63 °FSunny.7 mph32%29.68 "Hg10 mi
7:20 pm64 °FPassing clouds.9 mph28%29.68 "HgN/A
6:50 pm64 °FSunny.13 mph28%29.68 "Hg10 mi
6:20 pm66 °FPassing clouds.13 mph28%29.68 "HgN/A
5:50 pm66 °FPassing clouds.12 mph26%29.68 "HgN/A
5:20 pm66 °FPassing clouds.12 mph26%29.71 "HgN/A
4:50 pm64 °FPassing clouds.14 mph30%29.71 "HgN/A
4:20 pm64 °FPassing clouds.14 mph32%29.74 "HgN/A
3:50 pm64 °FPassing clouds.15 mph32%29.74 "HgN/A
3:20 pm63 °FPassing clouds.14 mph34%29.77 "HgN/A
2:50 pm63 °FPassing clouds.12 mph32%29.77 "HgN/A
2:20 pm63 °FPassing clouds.14 mph34%29.77 "HgN/A
1:50 pm63 °FPassing clouds.13 mph34%29.80 "HgN/A
1:20 pm63 °FPassing clouds.10 mph34%29.80 "HgN/A
12:50 pm61 °FPassing clouds.9 mph34%29.83 "HgN/A
12:20 pm61 °FSunny.13 mph34%29.83 "Hg10 mi
11:50 am59 °FPassing clouds.12 mph36%29.86 "HgN/A
11:20 am57 °FPassing clouds.12 mph39%29.86 "HgN/A
10:50 am55 °FPassing clouds.13 mph44%29.86 "HgN/A
10:20 am55 °FSunny.13 mph44%29.89 "Hg10 mi
9:50 am52 °FSunny.14 mph50%29.89 "Hg10 mi
9:20 am50 °FPassing clouds.9 mph54%29.89 "HgN/A
8:50 am46 °FSunny.10 mph66%29.92 "Hg10 mi
8:20 am45 °FSunny.8 mph66%29.92 "Hg10 mi
7:50 am43 °FPassing clouds.9 mph66%29.92 "HgN/A
7:20 am41 °FSunny.10 mph70%29.92 "Hg10 mi
6:50 am39 °FSunny.8 mph70%29.92 "Hg10 mi
6:20 am37 °FSunny.8 mph75%29.92 "Hg10 mi
5:50 am36 °FClear.8 mph81%29.92 "Hg10 mi
5:20 am36 °FClear.7 mph81%29.92 "Hg10 mi
4:50 am37 °FClear.6 mph75%29.92 "Hg10 mi
4:20 am37 °FClear.6 mph75%29.92 "Hg10 mi
Weather by CustomWeather, © 2017

See weather overviewHow to use our weather pages